CAL771 RCTP-WADD

Flight info

Callsign CAL771
Flight time N/A
Altitude 36000
Route KUDOS1A KUDOS DCT TINHO Q11 POTIB M646 SANRO B591 LUBAN DCT TOKON M646 NOMYO/N0489F380 M646 VJN M522 ELANG/N0486F390 M522 DOBMA
Aircraft B77W/H-SDE1E2E3FGHIJ2J3J4J5M1RWXY/LB1D1

Departure

Time 2026-05-04 01:10
Airport Taiwan Taoyuan International Airport (RCTP)

Arrival

Time N/A
Airport Denpasar I Gusti Ngurah Rai International Airport (WADD)
Time Latitude Longitude Altitude Speed Heading
2026-05-04 00:49 25.08085 121.23261 121 ft 0 kts 140°
2026-05-04 00:53 25.08087 121.23258 121 ft 2 kts 140°
2026-05-04 00:54 25.08099 121.23247 121 ft 2 kts 140°
2026-05-04 00:54 25.08110 121.23237 121 ft 2 kts 140°
2026-05-04 00:54 25.08122 121.23226 121 ft 2 kts 140°
2026-05-04 00:54 25.08134 121.23216 121 ft 2 kts 140°
2026-05-04 00:55 25.08145 121.23205 121 ft 2 kts 140°
2026-05-04 00:55 25.08154 121.23193 121 ft 2 kts 103°
2026-05-04 00:55 25.08154 121.23177 121 ft 2 kts 68°
2026-05-04 00:55 25.08146 121.23164 121 ft 2 kts 44°
2026-05-04 00:56 25.08137 121.23154 121 ft 1 kts 43°
2026-05-04 00:56 25.08133 121.23150 121 ft 0 kts 49°
2026-05-04 00:57 25.08134 121.23151 121 ft 1 kts 49°
2026-05-04 00:57 25.08153 121.23176 121 ft 7 kts 49°
2026-05-04 00:58 25.08204 121.23241 121 ft 14 kts 49°
2026-05-04 00:58 25.08280 121.23338 121 ft 18 kts 49°
2026-05-04 00:58 25.08359 121.23439 121 ft 16 kts 49°
2026-05-04 00:58 25.08432 121.23529 121 ft 14 kts 49°
2026-05-04 00:59 25.08495 121.23611 121 ft 13 kts 49°
2026-05-04 00:59 25.08552 121.23682 121 ft 11 kts 49°
2026-05-04 00:59 25.08604 121.23749 121 ft 10 kts 49°
2026-05-04 00:59 25.08651 121.23810 121 ft 9 kts 49°
2026-05-04 01:00 25.08665 121.23871 121 ft 8 kts 113°
2026-05-04 01:00 25.08621 121.23921 121 ft 11 kts 138°
2026-05-04 01:00 25.08546 121.23991 121 ft 16 kts 140°
2026-05-04 01:00 25.08451 121.24081 121 ft 18 kts 139°
2026-05-04 01:01 25.08360 121.24168 121 ft 16 kts 138°
2026-05-04 01:01 25.08277 121.24246 121 ft 14 kts 140°
2026-05-04 01:01 25.08199 121.24318 121 ft 14 kts 139°
2026-05-04 01:01 25.08128 121.24388 121 ft 13 kts 137°
2026-05-04 01:02 25.08062 121.24452 121 ft 11 kts 144°
2026-05-04 01:02 25.07995 121.24448 121 ft 10 kts 219°
2026-05-04 01:02 25.07938 121.24384 121 ft 13 kts 227°
2026-05-04 01:02 25.07860 121.24290 121 ft 19 kts 229°
2026-05-04 01:03 25.07768 121.24174 121 ft 19 kts 228°
2026-05-04 01:03 25.07681 121.24065 121 ft 18 kts 228°
2026-05-04 01:03 25.07603 121.23965 121 ft 16 kts 229°
2026-05-04 01:03 25.07531 121.23872 121 ft 15 kts 229°
2026-05-04 01:04 25.07465 121.23786 121 ft 14 kts 229°
2026-05-04 01:04 25.07393 121.23695 121 ft 18 kts 229°
2026-05-04 01:04 25.07301 121.23576 121 ft 20 kts 229°
2026-05-04 01:04 25.07213 121.23465 121 ft 18 kts 229°
2026-05-04 01:05 25.07132 121.23362 121 ft 17 kts 229°
2026-05-04 01:05 25.07057 121.23267 121 ft 15 kts 229°
2026-05-04 01:05 25.06987 121.23179 121 ft 14 kts 229°
2026-05-04 01:05 25.06920 121.23095 121 ft 14 kts 229°
2026-05-04 01:06 25.06856 121.23014 121 ft 13 kts 229°
2026-05-04 01:06 25.06796 121.22937 121 ft 13 kts 229°
2026-05-04 01:06 25.06728 121.22852 121 ft 14 kts 228°
2026-05-04 01:06 25.06652 121.22756 121 ft 18 kts 228°
2026-05-04 01:07 25.06571 121.22655 121 ft 17 kts 230°
2026-05-04 01:07 25.06494 121.22554 121 ft 16 kts 230°
2026-05-04 01:07 25.06421 121.22461 121 ft 15 kts 229°
2026-05-04 01:07 25.06353 121.22375 121 ft 14 kts 228°
2026-05-04 01:08 25.06290 121.22295 121 ft 13 kts 230°
2026-05-04 01:08 25.06220 121.22245 121 ft 11 kts 179°
2026-05-04 01:08 25.06155 121.22286 121 ft 10 kts 137°
2026-05-04 01:08 25.06111 121.22349 121 ft 9 kts 97°
2026-05-04 01:09 25.06132 121.22417 121 ft 9 kts 50°
2026-05-04 01:09 25.06177 121.22470 121 ft 14 kts 49°
2026-05-04 01:09 25.06417 121.22774 121 ft 89 kts 49°
2026-05-04 01:09 25.06974 121.23483 129 ft 153 kts 49°
2026-05-04 01:10 25.07726 121.24459 532 ft 175 kts 52°
2026-05-04 01:10 25.08457 121.25427 1719 ft 157 kts 50°
2026-05-04 01:10 25.09111 121.26276 2446 ft 149 kts 50°
2026-05-04 01:10 25.09827 121.27208 2663 ft 171 kts 50°
2026-05-04 01:11 25.10659 121.28292 2912 ft 194 kts 50°
2026-05-04 01:11 25.11577 121.29478 3186 ft 217 kts 49°
2026-05-04 01:11 25.12678 121.30742 3588 ft 236 kts 46°
2026-05-04 01:11 25.13848 121.32065 4174 ft 246 kts 47°
2026-05-04 01:12 25.15058 121.33450 4762 ft 255 kts 47°
2026-05-04 01:12 25.16294 121.34871 5362 ft 263 kts 47°
2026-05-04 01:12 25.17577 121.36348 5843 ft 276 kts 48°
2026-05-04 01:12 25.18931 121.37907 6424 ft 284 kts 48°
2026-05-04 01:13 25.20284 121.39465 7266 ft 281 kts 47°
2026-05-04 01:13 25.21661 121.41051 7669 ft 296 kts 47°
2026-05-04 01:13 25.23087 121.42695 8301 ft 300 kts 46°
2026-05-04 01:13 25.24539 121.44367 8933 ft 305 kts 45°
2026-05-04 01:14 25.26048 121.46107 9369 ft 317 kts 45°
2026-05-04 01:14 25.27579 121.47873 9932 ft 323 kts 45°
2026-05-04 01:14 25.29085 121.49748 10378 ft 335 kts 53°
2026-05-04 01:14 25.30338 121.52023 10633 ft 353 kts 65°
2026-05-04 01:15 25.31176 121.54607 10863 ft 370 kts 78°